Flag for Germany Weather past 2 weeks in Itzehoe, Schleswig-Holstein, Germany

Now
79 °F

Partly sunny.


Feels Like: 79 °F
Forecast: 64 / 78 °F
Wind: 16 mph from Northeast

Location: Hohn

Current Time: Jul 24, 2014 at 3:49:57 PM

Latest Report: Jul 24, 2014 at 3:20 PM


Visibility: N/A

Pressure: 30.09 "Hg

Humidity: 39%

Dew point: 52 °F

Location of ItzehoeLocation

Historic Weather in Itzehoe — Graph

°F

Itzehoe temperature yesterday

Maximum temperature yesterday: 81 °F (at 3:20 PM)
Minimum temperature yesterday: 57 °F (at 4:20 AM)
Average temperature yesterday: 70 °F

Past Weeks' High & Low Weather Summary

 TemperatureHumidityPressure
High88 °F (Jul 19, 2:20 PM)100% (Jul 16, 6:20 AM)30.21 "Hg (Jul 16, 6:20 AM)
Low48 °F (Jul 17, 4:20 AM)37% (Jul 22, 12:20 PM)29.62 "Hg (Jul 13, 6:20 PM)
Average68 °F69%29.98 "Hg
* Reported Jul 9 3:20 PM — Jul 24 2:20 PM, Itzehoe, Weather by CustomWeather, © 2014

Note: Actual official high and low records may vary slightly from our data, if they occured in-between our weather recording intervals... More about our weather records

Advertising

Itzehoe weather history for previous 24 hours

 ConditionsComfort  
Time TempWeatherWind HumidityBarometerVisibility
2:20 PM
Jul 24
81 °FPartly sunny.15 mph37%30.09 "HgN/A
1:20 PM79 °FScattered clouds.15 mph37%30.09 "HgN/A
12:20 PM79 °FScattered clouds.14 mph39%30.09 "HgN/A
11:20 AM79 °FPassing clouds.15 mph42%30.09 "HgN/A
10:20 AM75 °FPassing clouds.14 mph47%30.09 "HgN/A
9:20 AM73 °FPassing clouds.15 mph61%30.12 "HgN/A
8:20 AM70 °FPassing clouds.13 mph73%30.09 "HgN/A
7:20 AM66 °FPassing clouds.7 mph83%30.09 "HgN/A
6:20 AM55 °FPassing clouds.3 mph94%30.09 "Hg5 mi
5:20 AM54 °FFog.1 mph94%30.12 "HgN/A
4:20 AM55 °FCool.3 mph94%30.12 "HgN/A
3:20 AM55 °FCool.2 mph94%30.12 "HgN/A
2:20 AM55 °FCool.1 mph94%30.12 "HgN/A
1:20 AM57 °FCool.1 mph88%30.15 "HgN/A
12:20 AM61 °FPassing clouds.1 mph83%30.15 "HgN/A
11:20 PM
Jul 23
63 °FPassing clouds.3 mph73%30.15 "HgN/A
10:20 PM64 °FPassing clouds.5 mph64%30.15 "HgN/A
9:20 PM70 °FPassing clouds.7 mph53%30.15 "HgN/A
8:20 PM75 °FPassing clouds.10 mph41%30.15 "HgN/A
7:20 PM79 °FPassing clouds.15 mph39%30.15 "HgN/A
6:20 PM79 °FPassing clouds.17 mph42%30.15 "HgN/A
5:20 PM81 °FPassing clouds.17 mph39%30.15 "HgN/A
4:20 PM81 °FPassing clouds.20 mph39%30.15 "HgN/A
3:20 PM81 °FPassing clouds.17 mph42%30.18 "HgN/A
Weather by CustomWeather, © 2014

See weather overviewHow to use our weather pages